Regional Weather Roundup
Issued by NWS

Home | Current Version | Previous Version | Graphics & Text | Print | Product List | Glossary On
Versions: 1 2 3 4 5 6 7 8 9 10 11 12 13 14 15 16 17 18 19 20 21 22 23 24 25 26 27 28 29 30 31 32 33 34 35 36 37 38 39 40 41 42 43 44 45 46 47 48 49 50
000
ASUS43 KIND 101409
RWRIN

WEATHER ROUNDUP FOR INDIANA
NATIONAL WEATHER SERVICE INDIANAPOLIS IN
900 AM EST SUN DEC 10 2017

NOTE: "FAIR" INDICATES FEW OR NO CLOUDS BELOW 12,000 FEET WITH NO
SIGNIFICANT WEATHER AND/OR OBSTRUCTIONS TO VISIBILITY.

* - STATION DOES NOT REPORT WEATHER SUCH AS PRECIPITATION OR FOG.

+ - STATION NOT QUALITY CONTROLLED BY THE NATIONAL WEATHER SERVICE.
    USE DATA WITH CAUTION...ESPECIALLY DEWPOINT AND RELATIVE
    HUMIDITY OBSERVATIONS.

INZ001>003-010>013-019-020-101500-
NORTHWEST INDIANA

CITY           SKY/WX    TMP DP  RH WIND       PRES   REMARKS
GARY /AIRPORT/ MOCLDY    27  16  63 SW14      29.96F WCI  15
KNOX *+        CLOUDY    23  18  80 S9        29.99F WCI  13
LA PORTE +     CLOUDY    21  15  79 SW9       29.97F WCI  11
MICHIGAN CITY+ CLOUDY    23  16  74 S9        29.96F WCI  13
MONTICELLO +   CLOUDY    23  16  73 SW13      30.01F WCI  11
RENSSELAER +   CLOUDY    27  18  69 S15G22    29.99F WCI  15
VALPARAISO     CLOUDY    23  17  78 S13       29.97F WCI  11

$$

LMZ046-743>745-101500-
SOUTHERN LAKE MICHIGAN

STATION/POSITION TIME  TEMP    WIND        PRES    WAVE
                       AIR SEA DIR/SP/G            HT
                 (UTC) (F)     (DEG/KT/KT) (MB)    (FT)
BURNS HARBOR     1402   25     200/ 12/ 17 1014.6
MICHIGAN CITY    1340   22     180/ 14/ 17   N/A

$$

INZ004-005-014>016-021>024-101500-
NORTH CENTRAL INDIANA

CITY           SKY/WX    TMP DP  RH WIND       PRES   REMARKS
ELKHART        CLOUDY    21  14  73 SW7       29.96F WCI  13
GOSHEN         CLOUDY    20  14  77 SW12      29.98F WCI   8
LOGANSPORT +   CLOUDY    23  18  80 SW13      30.03S WCI  11
PERU/GRISSOM   CLOUDY    23  16  75 S13       30.01F WCI  11
ROCHESTER +    CLOUDY    27  19  74 SW10      30.00F WCI  17
SOUTH BEND     CLOUDY    19  15  84 SW13      29.97F WCI   6
WARSAW +       CLOUDY    21  16  79 SW5       29.99F WCI  15

$$

INZ006>009-017-018-025>027-101500-
NORTHEAST INDIANA

CITY           SKY/WX    TMP DP  RH WIND       PRES   REMARKS
AUBURN +       CLOUDY    21  14  73 SW7       30.00F WCI  13
FORT WAYNE     CLOUDY    22  17  81 SW12      30.02F WCI  10
HUNTINGTON +   CLOUDY    22  15  75 SW8       30.02S WCI  12
KENDALLVILLE + CLOUDY    20  15  79 SW10      29.97F WCI   9

$$

INZ028-029-035-036-043>045-051>053-101500-
WEST CENTRAL INDIANA

CITY           SKY/WX    TMP DP  RH WIND       PRES   REMARKS
CRAWFORDSVL +  CLOUDY    22  17  83 SW13        N/A  WCI  10
GREENCASTLE +  CLOUDY    23  18  80 SW7       30.07F WCI  15
LAFAYETTE      CLOUDY    23  17  78 SW9       30.04F WCI  13
TERRE HAUTE    CLOUDY    25  17  72 SW10      30.10R WCI  15

$$

INZ030>032-037>040-046>048-054>057-064-065-101500-
CENTRAL INDIANA

CITY           SKY/WX    TMP DP  RH WIND       PRES   REMARKS
COLUMBUS       CLOUDY    21  16  79 S6        30.13S WCI  14
FRANKFORT +    CLOUDY    26  19  75 SW12      30.05F WCI  16
GREENWOOD *+   CLOUDY   N/A N/A N/A S7        30.09S
INDIANAPOLIS   CLOUDY    23  16  74 SW10      30.08S WCI  12
-EAGLE CREEK   CLOUDY    24  15  68 SW7       30.07S WCI  16
KOKOMO +       CLOUDY    23  17  78 SW14      30.03F WCI  11
MARION +       LGT SNOW  22  17  81 SW10      30.04F WCI  11
MT COMFORT *+  CLOUDY    21  19  93 SW9       30.07S WCI  11
SHELBYVILLE    CLOUDY    24  16  71 S12       30.09S WCI  13
ZIONSVILLE +   CLOUDY    23  16  74 SW10      30.06S WCI  12

$$

INZ033-034-041-042-049-050-058-059-101500-
EAST CENTRAL INDIANA

CITY           SKY/WX    TMP DP  RH WIND       PRES   REMARKS
MUNCIE         CLOUDY    24  15  68 SW10      30.05R WCI  14
RICHMOND +     CLOUDY    21  18  86 SW15      30.08R WCI   8

$$

INZ060-061-067>069-081>083-085>088-101500-
SOUTHWEST INDIANA

CITY           SKY/WX    TMP DP  RH WIND       PRES   REMARKS
EVANSVILLE     CLEAR     26  21  81 SW8       30.20S WCI  18
HUNTINGBURG +  MOCLDY    25  20  81 S12       30.18S WCI  14
WASHINGTON +   CLOUDY    26  16  67 SW10      30.16S WCI  16

$$

INZ062-063-066-070>080-084-089>092-101500-
SOUTH CENTRAL AND SOUTHEAST INDIANA

CITY           SKY/WX    TMP DP  RH WIND       PRES   REMARKS
BEDFORD +      CLOUDY    25  18  74 S9        30.12F WCI  15
BLOOMINGTON    CLOUDY    24  16  71 SW9       30.10F WCI  14
MADISON *+     CLOUDY    27  18  69 SW8       30.16F WCI  18
NORTH VERNON + CLOUDY    21  16  79 S8        30.13F WCI  12
SEYMOUR +      CLOUDY    25  18  74 S7        30.15S WCI  17

$$





USA.gov is the U.S. government's official web portal to all federal, state and local government web resources and services.